Location: Apollinopolis Magna
(24.9792°N, 32.8772°E)
Time: 10:49:30
(UTC+00:00)

DELTA 2 R/B (1) - Pass Details

Date: 02 March 2021
Orbit: 790 x 803 km, 39.6° (Epoch: 15 April)

Event Time Altitude Azimuth Distance (km) Brightness Sun altitude
Rises 17:28:45 0° 250° (WSW) 3,272 7.9 -22.9°
Reaches altitude 10° 17:31:17 10° 255° (WSW) 2,343 7.0 -23.5°
Maximum altitude 17:36:39 51° 331° (NNW) 980 4.1 -24.7°
Enters shadow 17:38:21 38° 21° (NNE) 1,190 4.3 -25.0°
